"read_dt","SO2 (ppb)","flags","PMT voltage (V)","lamp voltage (V)","lamp intensity (Hz)","internal temp (C)","react chamber temp (C)","sample flow (l/min)","pres (mmHg)","SO2 bkg (ppb)","SO2 coefficient"
2014-05-05 00:00:00,3085E-2,5C000400,-0724,1035,10229,024.7,045.2,0.162,753.8,01.17,0.508
2014-05-05 00:01:00,3129E-2,5C000400,-0724,1036,10110,024.7,045.2,0.162,753.7,01.17,0.508
2014-05-05 00:02:00,3119E-2,5C000400,-0724,1037,10044,024.7,045.2,0.162,753.6,01.17,0.508
2014-05-05 00:03:00,3093E-2,5C000400,-0724,1036,9990,024.7,045.2,0.162,753.7,01.17,0.508
2014-05-05 00:04:00,3082E-2,5C000400,-0724,1037,10143,024.7,045.2,0.162,753.8,01.17,0.508
2014-05-05 00:05:00,3116E-2,5C000400,-0724,1038,10104,024.7,045.2,0.162,753.6,01.17,0.508
2014-05-05 00:06:00,3093E-2,5C000400,-0724,1037,10187,024.7,045.2,0.162,753.6,01.17,0.508
2014-05-05 00:07:00,3103E-2,5C000400,-0724,1037,10154,024.7,045.2,0.162,753.7,01.17,0.508
2014-05-05 00:08:00,3107E-2,5C000400,-0724,1037,10229,024.7,045.2,0.162,753.7,01.17,0.508
2014-05-05 00:09:00,3121E-2,5C000400,-0724,1039,10293,024.7,045.2,0.162,753.6,01.17,0.508
2014-05-05 00:10:00,3109E-2,5C000400,-0724,1037,10188,024.7,045.2,0.162,753.6,01.17,0.508
2014-05-05 00:11:00,3103E-2,5C000400,-0724,1038,10058,024.7,045.2,0.162,753.6,01.17,0.508
2014-05-05 00:12:00,3109E-2,5C000400,-0724,1037,10149,024.7,045.2,0.162,753.6,01.17,0.508
2014-05-05 00:13:00,3124E-2,5C000400,-0724,1038,10232,024.7,045.2,0.162,753.6,01.17,0.508
2014-05-05 00:14:00,3092E-2,5C000400,-0724,1039,10107,024.7,045.2,0.162,753.7,01.17,0.508
2014-05-05 00:15:00,3111E-2,5C000400,-0724,1039,10024,024.7,045.2,0.162,753.7,01.17,0.508
2014-05-05 00:16:00,3091E-2,5C000400,-0724,1038,10167,024.8,045.2,0.162,753.6,01.17,0.508
2014-05-05 00:17:00,3139E-2,5C000400,-0724,1037,10237,024.7,045.2,0.162,753.7,01.17,0.508
2014-05-05 00:18:00,3116E-2,5C000400,-0724,1038,10107,024.7,045.2,0.162,753.7,01.17,0.508
2014-05-05 00:19:00,3116E-2,5C000400,-0724,1038,10135,024.8,045.2,0.162,753.7,01.17,0.508
2014-05-05 00:20:00,3070E-2,5C000400,-0724,1034,10431,024.7,045.2,0.162,753.7,01.17,0.508
2014-05-05 00:21:00,2906E-2,5C000400,-0724,1030,10170,024.7,045.2,0.162,753.7,01.17,0.508
2014-05-05 00:22:00,2912E-2,5C000400,-0724,1030,10081,024.7,045.2,0.162,753.7,01.17,0.508
2014-05-05 00:23:00,2918E-2,5C000400,-0724,1032,10227,024.7,045.2,0.162,753.6,01.17,0.508
2014-05-05 00:24:00,2868E-2,5C000400,-0724,1031,10203,024.8,045.2,0.162,753.6,01.17,0.508
2014-05-05 00:25:00,2931E-2,5C000400,-0724,1031,10032,024.8,045.2,0.162,753.7,01.17,0.508
2014-05-05 00:26:00,2891E-2,5C000400,-0724,1031,10330,024.8,045.2,0.162,753.6,01.17,0.508
2014-05-05 00:27:00,2925E-2,5C000400,-0724,1030,10158,024.8,045.2,0.162,753.6,01.17,0.508
2014-05-05 00:28:00,2947E-2,5C000400,-0724,1031,10201,024.8,045.2,0.162,753.7,01.17,0.508
2014-05-05 00:29:00,2888E-2,5C000400,-0724,1032,10200,024.8,045.2,0.162,753.6,01.17,0.508
2014-05-05 00:30:00,2914E-2,5C000400,-0724,1031,10174,024.8,045.2,0.162,753.5,01.17,0.508
2014-05-05 00:31:00,2918E-2,5C000400,-0724,1031,10165,024.8,045.2,0.162,753.6,01.17,0.508
2014-05-05 00:32:00,2897E-2,5C000400,-0724,1032,10117,024.8,045.2,0.162,753.6,01.17,0.508
2014-05-05 00:33:00,2929E-2,5C000400,-0724,1032,10262,024.8,045.2,0.162,753.6,01.17,0.508
2014-05-05 00:34:00,2927E-2,5C000400,-0724,1032,10124,024.8,045.2,0.162,753.5,01.17,0.508
2014-05-05 00:35:00,2992E-2,5C000400,-0724,1033,10139,024.8,045.2,0.162,753.5,01.17,0.508
2014-05-05 00:36:00,2920E-2,5C000400,-0724,1034,10310,024.8,045.2,0.162,753.5,01.17,0.508
2014-05-05 00:37:00,2976E-2,5C000400,-0724,1032,10290,024.8,045.2,0.162,753.5,01.17,0.508
2014-05-05 00:38:00,2899E-2,5C000400,-0724,1033,10264,024.8,045.2,0.162,753.5,01.17,0.508
2014-05-05 00:39:00,2922E-2,5C000400,-0724,1033,10209,024.8,045.2,0.162,753.5,01.17,0.508
2014-05-05 00:40:00,2888E-2,5C000400,-0724,1032,10067,024.8,045.2,0.162,753.5,01.17,0.508
2014-05-05 00:41:00,2949E-2,5C000400,-0724,1032,10289,024.9,045.2,0.162,753.5,01.17,0.508
2014-05-05 00:42:00,2984E-2,5C000400,-0724,1033,10038,024.8,045.2,0.162,753.4,01.17,0.508
2014-05-05 00:43:00,2893E-2,5C000400,-0724,1033,10233,024.9,045.2,0.162,753.4,01.17,0.508
2014-05-05 00:44:00,3010E-2,5C000400,-0724,1034,10196,024.9,045.2,0.162,753.5,01.17,0.508
2014-05-05 00:45:00,2956E-2,5C000400,-0724,1034,10137,024.9,045.2,0.162,753.4,01.17,0.508
2014-05-05 00:46:00,2941E-2,5C000400,-0724,1033,10163,024.9,045.2,0.162,753.3,01.17,0.508
2014-05-05 00:47:00,2961E-2,5C000400,-0724,1034,10170,024.8,045.2,0.162,753.3,01.17,0.508
2014-05-05 00:48:00,2906E-2,5C000400,-0724,1033,10112,024.8,045.2,0.162,753.3,01.17,0.508
2014-05-05 00:49:00,2984E-2,5C000400,-0724,1032,10275,024.9,045.2,0.162,753.3,01.17,0.508
2014-05-05 00:50:00,2945E-2,5C000400,-0724,1033,10206,024.9,045.2,0.162,753.3,01.17,0.508
2014-05-05 00:51:00,2885E-2,5C000400,-0724,1033,10325,024.9,045.2,0.162,753.2,01.17,0.508
2014-05-05 00:52:00,2981E-2,5C000400,-0724,1033,10302,024.9,045.2,0.162,753.2,01.17,0.508
2014-05-05 00:53:00,2962E-2,5C000400,-0724,1032,10267,024.9,045.2,0.162,753.2,01.17,0.508
2014-05-05 00:54:00,2947E-2,5C000400,-0724,1033,10218,024.9,045.2,0.162,753.3,01.17,0.508
2014-05-05 00:55:00,2951E-2,5C000400,-0724,1033,10275,024.9,045.2,0.162,753.2,01.17,0.508
2014-05-05 00:56:00,2949E-2,5C000400,-0724,1032,10350,024.9,045.2,0.162,753.1,01.17,0.508
2014-05-05 00:57:00,2934E-2,5C000410,-0724,1033,9991,024.9,045.2,0.162,753.1,01.17,0.508
2014-05-05 00:58:00,2934E-2,5C000400,-0724,1032,10226,024.9,045.2,0.162,753.1,01.17,0.508
2014-05-05 00:59:00,2973E-2,5C000400,-0724,1032,10092,024.9,045.2,0.162,753.1,01.17,0.508
2014-05-05 01:00:00,2942E-2,5C000400,-0724,1032,10092,024.9,045.2,0.162,753.0,01.17,0.508
2014-05-05 01:01:00,2920E-2,5C000400,-0724,1032,10315,024.9,045.2,0.162,753.1,01.17,0.508
2014-05-05 01:02:00,2889E-2,5C000400,-0724,1031,10229,024.9,045.2,0.162,753.1,01.17,0.508
2014-05-05 01:03:00,2958E-2,5C000410,-0724,1030,10101,024.9,045.2,0.162,753.1,01.17,0.508
2014-05-05 01:04:00,2914E-2,5C000400,-0724,1031,10343,024.9,045.2,0.162,753.0,01.17,0.508
2014-05-05 01:05:00,2944E-2,5C000400,-0724,1030,10321,025.0,045.2,0.162,753.1,01.17,0.508
2014-05-05 01:06:00,2916E-2,5C000400,-0724,1030,10297,024.9,045.2,0.162,753.1,01.17,0.508
2014-05-05 01:07:00,2886E-2,5C000400,-0724,1031,10084,024.9,045.2,0.162,753.0,01.17,0.508
2014-05-05 01:08:00,2928E-2,5C000400,-0724,1029,10392,024.9,045.2,0.162,753.0,01.17,0.508
2014-05-05 01:09:00,2964E-2,5C000400,-0724,1030,10314,024.9,045.2,0.162,753.1,01.17,0.508
2014-05-05 01:10:00,2904E-2,5C000400,-0724,1029,10330,025.0,045.2,0.162,753.1,01.17,0.508
2014-05-05 01:11:00,2970E-2,5C000400,-0724,1029,10240,025.0,045.2,0.162,753.0,01.17,0.508
2014-05-05 01:12:00,2897E-2,5C000400,-0724,1029,10338,025.0,045.2,0.161,753.0,01.17,0.508
2014-05-05 01:13:00,2900E-2,5C000400,-0724,1028,10215,025.0,045.2,0.162,753.0,01.17,0.508
2014-05-05 01:14:00,2933E-2,5C000400,-0724,1029,10302,025.0,045.2,0.162,752.9,01.17,0.508
2014-05-05 01:15:00,2856E-2,5C000400,-0724,1029,10113,025.0,045.2,0.161,752.9,01.17,0.508
2014-05-05 01:16:00,2935E-2,5C000400,-0724,1029,10251,025.0,045.2,0.161,752.9,01.17,0.508
2014-05-05 01:17:00,2956E-2,5C000400,-0724,1029,10266,025.0,045.2,0.162,752.9,01.17,0.508
2014-05-05 01:18:00,2895E-2,5C000400,-0724,1029,10142,025.0,045.2,0.162,752.8,01.17,0.508
2014-05-05 01:19:00,2929E-2,5C000400,-0724,1028,10121,025.0,045.2,0.161,752.8,01.17,0.508
2014-05-05 01:20:00,2918E-2,5C000400,-0724,1029,10226,025.0,045.2,0.161,752.7,01.17,0.508
2014-05-05 01:21:00,2934E-2,5C000400,-0724,1029,10320,025.0,045.2,0.161,752.7,01.17,0.508
2014-05-05 01:22:00,2920E-2,5C000400,-0724,1029,10209,025.0,045.2,0.161,752.7,01.17,0.508
2014-05-05 01:23:00,2943E-2,5C000400,-0724,1028,10259,025.0,045.2,0.161,752.7,01.17,0.508
2014-05-05 01:24:00,2982E-2,5C000400,-0724,1029,10240,025.0,045.2,0.161,752.6,01.17,0.508
2014-05-05 01:25:00,2932E-2,5C000400,-0724,1028,10118,025.0,045.2,0.161,752.6,01.17,0.508
2014-05-05 01:26:00,2913E-2,5C000400,-0724,1028,10018,025.0,045.2,0.161,752.5,01.17,0.508
2014-05-05 01:27:00,2938E-2,5C000400,-0724,1027,10327,025.0,045.2,0.161,752.5,01.17,0.508
2014-05-05 01:28:00,2966E-2,5C000400,-0724,1028,10346,025.0,045.2,0.161,752.5,01.17,0.508
2014-05-05 01:29:00,2956E-2,5C000400,-0724,1029,10285,025.0,045.2,0.161,752.5,01.17,0.508
2014-05-05 01:30:00,2908E-2,5C000400,-0724,1029,10267,025.0,045.2,0.161,752.5,01.17,0.508
2014-05-05 01:31:00,2958E-2,5C000400,-0724,1029,10265,025.0,045.2,0.161,752.4,01.17,0.508
2014-05-05 01:32:00,2924E-2,5C000400,-0724,1031,10247,025.0,045.2,0.161,752.4,01.17,0.508
2014-05-05 01:33:00,2994E-2,5C000400,-0724,1030,10157,025.0,045.2,0.161,752.3,01.17,0.508
2014-05-05 01:34:00,3004E-2,5C000400,-0724,1031,10288,025.0,045.2,0.161,752.3,01.17,0.508
2014-05-05 01:35:00,3005E-2,5C000400,-0724,1030,10308,025.0,045.2,0.161,752.3,01.17,0.508
2014-05-05 01:36:00,2975E-2,5C000400,-0724,1029,10145,025.0,045.2,0.161,752.3,01.17,0.508
2014-05-05 01:37:00,2993E-2,5C000400,-0724,1031,10179,025.0,045.2,0.161,752.2,01.17,0.508
2014-05-05 01:38:00,3007E-2,5C000400,-0724,1031,10186,025.0,045.2,0.161,752.2,01.17,0.508
2014-05-05 01:39:00,3024E-2,5C000400,-0724,1030,10114,025.0,045.2,0.161,752.1,01.17,0.508
2014-05-05 01:40:00,2966E-2,5C000400,-0724,1030,10353,025.0,045.2,0.161,752.2,01.17,0.508
2014-05-05 01:41:00,2994E-2,5C000400,-0724,1029,10214,025.0,045.2,0.161,752.2,01.17,0.508
2014-05-05 01:42:00,3004E-2,5C000400,-0724,1031,10118,025.0,045.2,0.161,752.1,01.17,0.508
2014-05-05 01:43:00,3029E-2,5C000400,-0724,1030,10226,025.1,045.2,0.161,752.0,01.17,0.508
2014-05-05 01:44:00,3020E-2,5C000400,-0724,1031,10303,025.0,045.2,0.161,752.0,01.17,0.508
2014-05-05 01:45:00,3009E-2,5C000400,-0724,1030,10164,025.1,045.2,0.161,752.0,01.17,0.508
2014-05-05 01:46:00,3024E-2,5C000400,-0724,1030,10264,025.1,045.2,0.161,752.0,01.17,0.508
2014-05-05 01:47:00,3021E-2,5C000400,-0724,1030,10312,025.0,045.2,0.161,752.0,01.17,0.508
2014-05-05 01:48:00,3034E-2,5C000400,-0724,1031,10124,025.0,045.2,0.161,752.0,01.17,0.508
2014-05-05 01:49:00,3025E-2,5C000400,-0724,1031,10216,025.1,045.2,0.161,752.0,01.17,0.508
2014-05-05 01:50:00,3017E-2,5C000400,-0724,1029,10376,025.1,045.2,0.161,751.9,01.17,0.508
2014-05-05 01:51:00,2929E-2,5C000400,-0724,1031,10316,025.1,045.2,0.161,752.0,01.17,0.508
2014-05-05 01:52:00,2917E-2,5C000400,-0724,1030,10226,025.1,045.2,0.161,751.9,01.17,0.508
2014-05-05 01:53:00,2912E-2,5C000400,-0724,1030,10244,025.1,045.2,0.161,751.9,01.17,0.508
2014-05-05 01:54:00,2937E-2,5C000400,-0724,1030,10176,025.1,045.2,0.161,751.9,01.17,0.508
2014-05-05 01:55:00,2923E-2,5C000400,-0724,1030,10314,025.1,045.2,0.161,751.9,01.17,0.508
2014-05-05 01:56:00,2890E-2,5C000400,-0724,1029,10172,025.1,045.2,0.161,751.9,01.17,0.508
2014-05-05 01:57:00,2897E-2,5C000400,-0724,1030,10197,025.1,045.2,0.161,751.8,01.17,0.508
2014-05-05 01:58:00,2921E-2,5C000400,-0724,1029,10325,025.1,045.2,0.161,751.8,01.17,0.508
2014-05-05 01:59:00,2967E-2,5C000400,-0724,1031,10274,025.1,045.2,0.161,751.8,01.17,0.508
2014-05-05 02:00:00,2958E-2,5C000400,-0724,1030,10234,025.1,045.2,0.161,751.8,01.17,0.508
2014-05-05 02:01:00,2915E-2,5C000400,-0724,1030,10258,025.1,045.2,0.161,751.8,01.17,0.508
2014-05-05 02:02:00,2917E-2,5C000400,-0724,1030,10169,025.1,045.2,0.161,751.9,01.17,0.508
2014-05-05 02:03:00,2918E-2,5C000400,-0724,1028,10422,025.1,045.2,0.161,751.8,01.17,0.508
2014-05-05 02:04:00,2950E-2,5C000400,-0724,1029,10289,025.1,045.2,0.161,751.8,01.17,0.508
2014-05-05 02:05:00,2899E-2,5C000400,-0724,1029,10146,025.1,045.2,0.161,751.8,01.17,0.508
2014-05-05 02:06:00,2920E-2,5C000400,-0724,1028,10184,025.1,045.2,0.161,751.8,01.17,0.508
2014-05-05 02:07:00,2952E-2,5C000400,-0724,1029,10193,025.1,045.2,0.161,751.8,01.17,0.508
2014-05-05 02:08:00,2928E-2,5C000400,-0724,1028,10096,025.1,045.2,0.161,751.8,01.17,0.508
2014-05-05 02:09:00,2942E-2,5C000400,-0724,1029,10089,025.1,045.2,0.161,751.8,01.17,0.508
2014-05-05 02:10:00,2919E-2,5C000400,-0724,1030,10226,025.1,045.2,0.161,751.7,01.17,0.508
2014-05-05 02:11:00,2932E-2,5C000400,-0724,1028,10215,025.1,045.2,0.161,751.7,01.17,0.508
2014-05-05 02:12:00,2921E-2,5C000400,-0724,1028,10234,025.1,045.2,0.161,751.7,01.17,0.508
2014-05-05 02:13:00,2943E-2,5C000400,-0724,1028,10224,025.1,045.2,0.161,751.8,01.17,0.508
2014-05-05 02:14:00,2965E-2,5C000400,-0724,1029,10295,025.1,045.2,0.161,751.7,01.17,0.508
2014-05-05 02:15:00,2979E-2,5C000400,-0724,1028,10343,025.1,045.2,0.161,751.7,01.17,0.508
2014-05-05 02:16:00,2932E-2,5C000400,-0724,1027,10283,025.1,045.2,0.161,751.6,01.17,0.508
2014-05-05 02:17:00,2991E-2,5C000400,-0724,1029,10360,025.2,045.2,0.161,751.6,01.17,0.508
2014-05-05 02:18:00,2986E-2,5C000400,-0724,1028,10307,025.1,045.2,0.161,751.7,01.17,0.508
2014-05-05 02:19:00,2971E-2,5C000400,-0724,1027,10306,025.1,045.2,0.161,751.7,01.17,0.508
2014-05-05 02:20:00,2924E-2,5C000400,-0724,1029,10341,025.1,045.2,0.161,751.6,01.17,0.508
2014-05-05 02:21:00,3020E-2,5C000400,-0724,1028,10278,025.1,045.2,0.161,751.6,01.17,0.508
2014-05-05 02:22:00,2969E-2,5C000400,-0724,1028,10361,025.2,045.2,0.161,751.7,01.17,0.508
2014-05-05 02:23:00,3006E-2,5C000400,-0724,1028,10284,025.2,045.2,0.161,751.7,01.17,0.508
2014-05-05 02:24:00,2935E-2,5C000400,-0724,1028,10085,025.2,045.2,0.161,751.6,01.17,0.508
2014-05-05 02:25:00,2975E-2,5C000400,-0724,1028,10263,025.2,045.2,0.161,751.6,01.17,0.508
2014-05-05 02:26:00,2990E-2,5C000400,-0724,1028,10260,025.2,045.2,0.161,751.6,01.17,0.508
2014-05-05 02:27:00,2995E-2,5C000400,-0724,1027,10277,025.2,045.2,0.161,751.6,01.17,0.508
2014-05-05 02:28:00,2955E-2,5C000400,-0724,1028,10045,025.2,045.2,0.161,751.6,01.17,0.508
2014-05-05 02:29:00,2976E-2,5C000400,-0724,1028,10305,025.2,045.2,0.161,751.6,01.17,0.508
2014-05-05 02:30:00,3014E-2,5C000400,-0724,1028,10257,025.2,045.2,0.161,751.6,01.17,0.508
2014-05-05 02:31:00,2986E-2,5C000400,-0724,1029,10332,025.2,045.2,0.161,751.6,01.17,0.508
2014-05-05 02:32:00,3032E-2,5C000400,-0724,1029,10192,025.2,045.2,0.161,751.5,01.17,0.508
2014-05-05 02:33:00,2959E-2,5C000400,-0724,1028,10322,025.2,045.2,0.161,751.5,01.17,0.508
2014-05-05 02:34:00,3008E-2,5C000400,-0724,1029,10225,025.2,045.2,0.161,751.5,01.17,0.508
2014-05-05 02:35:00,3000E-2,5C000400,-0724,1030,10125,025.2,045.2,0.161,751.5,01.17,0.508
2014-05-05 02:36:00,2995E-2,5C000400,-0724,1030,10070,025.2,045.2,0.161,751.6,01.17,0.508
2014-05-05 02:37:00,3067E-2,5C000400,-0724,1029,10376,025.3,045.2,0.161,751.5,01.17,0.508
2014-05-05 02:38:00,3036E-2,5C000400,-0724,1029,10301,025.2,045.2,0.161,751.5,01.17,0.508
2014-05-05 02:39:00,3029E-2,5C000400,-0724,1029,10140,025.2,045.2,0.161,751.5,01.17,0.508
2014-05-05 02:40:00,3004E-2,5C000400,-0724,1028,10181,025.2,045.2,0.161,751.5,01.17,0.508
2014-05-05 02:41:00,3031E-2,5C000400,-0724,1031,10129,025.3,045.2,0.161,751.4,01.17,0.508
2014-05-05 02:42:00,3009E-2,5C000400,-0724,1030,10246,025.3,045.2,0.161,751.5,01.17,0.508
2014-05-05 02:43:00,3024E-2,5C000400,-0724,1031,10375,025.3,045.2,0.161,751.4,01.17,0.508
2014-05-05 02:44:00,2968E-2,5C000410,-0724,1031,10345,025.3,045.2,0.161,751.4,01.17,0.508
2014-05-05 02:45:00,2956E-2,5C000400,-0724,1030,10253,025.3,045.2,0.120,751.4,01.17,0.508
2014-05-05 02:46:00,3024E-2,5C000400,-0724,1030,10119,025.3,045.2,0.000,751.4,01.17,0.508
2014-05-05 02:47:00,3017E-2,5C000400,-0724,1031,10197,025.3,045.2,0.000,751.4,01.17,0.508
2014-05-05 02:48:00,3004E-2,5C000400,-0724,1030,10258,025.3,045.2,0.000,751.4,01.17,0.508
2014-05-05 02:49:00,3013E-2,5C000400,-0724,1028,10280,025.3,045.2,0.000,751.4,01.17,0.508
2014-05-05 02:50:00,3045E-2,5C000400,-0724,1030,10188,025.3,045.2,0.000,751.3,01.17,0.508
2014-05-05 02:51:00,2983E-2,5C000400,-0724,1030,10239,025.3,045.2,0.000,751.4,01.17,0.508
2014-05-05 02:52:00,3029E-2,5C000400,-0724,1030,10269,025.3,045.2,0.000,751.3,01.17,0.508
2014-05-05 02:53:00,2975E-2,5C000400,-0724,1029,10294,025.3,045.2,0.000,751.3,01.17,0.508
2014-05-05 02:54:00,3020E-2,5C000400,-0724,1030,10077,025.3,045.2,0.000,751.3,01.17,0.508
2014-05-05 02:55:00,3014E-2,5C000400,-0724,1030,10156,025.3,045.2,0.000,751.3,01.17,0.508
2014-05-05 02:56:00,3006E-2,5C000400,-0724,1030,10227,025.3,045.2,0.000,751.3,01.17,0.508
2014-05-05 02:57:00,3032E-2,5C000400,-0724,1030,10291,025.3,045.2,0.000,751.3,01.17,0.508
2014-05-05 02:58:00,2987E-2,5C000400,-0724,1030,10164,025.4,045.2,0.000,751.3,01.17,0.508
2014-05-05 02:59:00,3050E-2,5C000400,-0724,1030,10300,025.3,045.2,0.000,751.3,01.17,0.508
2014-05-05 03:00:00,3022E-2,5C000400,-0724,1031,10350,025.3,045.2,0.000,751.2,01.17,0.508
2014-05-05 03:01:00,3051E-2,5C000400,-0724,1029,10241,025.3,045.2,0.000,751.2,01.17,0.508
2014-05-05 03:02:00,3013E-2,5C000400,-0724,1031,10312,025.4,045.2,0.000,751.2,01.17,0.508
2014-05-05 03:03:00,2993E-2,5C000400,-0724,1031,10050,025.3,045.3,0.000,751.2,01.17,0.508
2014-05-05 03:04:00,3006E-2,5C000400,-0724,1031,10203,025.4,045.2,0.000,751.2,01.17,0.508
2014-05-05 03:05:00,3028E-2,5C000400,-0724,1030,10070,025.4,045.2,0.000,751.2,01.17,0.508
2014-05-05 03:06:00,3003E-2,5C000400,-0724,1032,10287,025.4,045.2,0.000,751.1,01.17,0.508
2014-05-05 03:07:00,2979E-2,5C000400,-0724,1030,10262,025.4,045.2,0.000,751.1,01.17,0.508
2014-05-05 03:08:00,3012E-2,5C000400,-0724,1031,10327,025.4,045.2,0.000,751.1,01.17,0.508
2014-05-05 03:09:00,3009E-2,5C000400,-0724,1030,10057,025.4,045.2,0.000,751.1,01.17,0.508
2014-05-05 03:10:00,3016E-2,5C000400,-0724,1030,10065,025.4,045.2,0.000,751.1,01.17,0.508
2014-05-05 03:11:00,3003E-2,5C000400,-0724,1031,10202,025.4,045.2,0.000,751.1,01.17,0.508
2014-05-05 03:12:00,3012E-2,5C000400,-0724,1030,10168,025.4,045.2,0.000,751.0,01.17,0.508
2014-05-05 03:13:00,3034E-2,5C000400,-0724,1031,10125,025.4,045.2,0.000,751.1,01.17,0.508
2014-05-05 03:14:00,3047E-2,5C000400,-0724,1031,10141,025.4,045.2,0.000,751.1,01.17,0.508
2014-05-05 03:15:00,3002E-2,5C000400,-0724,1031,10158,025.4,045.2,0.000,751.1,01.17,0.508
2014-05-05 03:16:00,2984E-2,5C000400,-0724,1031,10220,025.4,045.2,0.000,751.1,01.17,0.508
2014-05-05 03:17:00,3042E-2,5C000400,-0724,1031,10225,025.4,045.2,0.000,751.0,01.17,0.508
2014-05-05 03:18:00,3050E-2,5C000400,-0724,1031,10369,025.4,045.2,0.000,751.0,01.17,0.508
2014-05-05 03:19:00,3002E-2,5C000400,-0724,1032,10284,025.4,045.2,0.000,751.0,01.17,0.508
2014-05-05 03:20:00,3014E-2,5C000400,-0724,1032,10317,025.4,045.2,0.000,751.1,01.17,0.508
2014-05-05 03:21:00,3032E-2,5C000400,-0724,1031,10094,025.5,045.2,0.000,751.0,01.17,0.508
2014-05-05 03:22:00,2998E-2,5C000400,-0724,1032,10272,025.5,045.2,0.000,751.0,01.17,0.508
2014-05-05 03:23:00,3035E-2,5C000400,-0724,1031,10210,025.4,045.2,0.000,751.0,01.17,0.508
2014-05-05 03:24:00,3013E-2,5C000400,-0724,1030,10282,025.5,045.2,0.000,751.0,01.17,0.508
2014-05-05 03:25:00,3006E-2,5C000400,-0724,1031,10050,025.4,045.2,0.000,751.0,01.17,0.508
2014-05-05 03:26:00,3026E-2,5C000400,-0724,1031,10245,025.4,045.2,0.000,751.0,01.17,0.508
2014-05-05 03:27:00,3028E-2,5C000400,-0724,1030,10254,025.4,045.2,0.000,751.0,01.17,0.508
2014-05-05 03:28:00,3042E-2,5C000400,-0724,1030,10184,025.5,045.2,0.000,750.9,01.17,0.508
2014-05-05 03:29:00,3017E-2,5C000400,-0724,1032,10150,025.5,045.2,0.000,750.9,01.17,0.508
2014-05-05 03:30:00,3021E-2,5C000400,-0724,1031,10239,025.5,045.2,0.000,750.9,01.17,0.508
2014-05-05 03:31:00,3012E-2,5C000400,-0724,1033,10237,025.5,045.2,0.000,750.9,01.17,0.508
2014-05-05 03:32:00,3024E-2,5C000400,-0724,1032,10316,025.5,045.2,0.000,750.9,01.17,0.508
2014-05-05 03:33:00,3058E-2,5C000400,-0724,1032,10413,025.4,045.2,0.000,750.8,01.17,0.508
2014-05-05 03:34:00,2991E-2,5C000400,-0724,1032,10338,025.5,045.2,0.000,750.8,01.17,0.508
2014-05-05 03:35:00,3049E-2,5C000400,-0724,1031,10203,025.5,045.2,0.000,750.8,01.17,0.508
2014-05-05 03:36:00,2999E-2,5C000400,-0724,1032,10280,025.5,045.2,0.000,750.9,01.17,0.508
2014-05-05 03:37:00,3060E-2,5C000400,-0724,1031,10042,025.5,045.2,0.000,750.8,01.17,0.508
2014-05-05 03:38:00,3052E-2,5C000400,-0724,1032,10215,025.5,045.2,0.000,750.7,01.17,0.508
2014-05-05 03:39:00,3056E-2,5C000400,-0724,1032,10162,025.5,045.2,0.000,750.8,01.17,0.508
2014-05-05 03:40:00,3038E-2,5C000410,-0724,1032,10075,025.5,045.2,0.000,750.8,01.17,0.508
2014-05-05 03:41:00,2950E-2,5C000400,-0724,1031,10274,025.5,045.3,0.000,750.7,01.17,0.508
2014-05-05 03:42:00,2950E-2,5C000400,-0724,1032,10152,025.5,045.3,0.000,750.6,01.17,0.508
2014-05-05 03:43:00,2969E-2,5C000400,-0724,1032,10190,025.5,045.2,0.000,750.7,01.17,0.508
2014-05-05 03:44:00,2972E-2,5C000400,-0724,1031,10305,025.5,045.2,0.000,750.7,01.17,0.508
2014-05-05 03:45:00,2999E-2,5C000400,-0724,1032,10279,025.5,045.2,0.000,750.7,01.17,0.508
2014-05-05 03:46:00,2954E-2,5C000400,-0724,1032,10137,025.5,045.2,0.000,750.7,01.17,0.508
2014-05-05 03:47:00,2998E-2,5C000400,-0724,1032,10153,025.5,045.2,0.000,750.7,01.17,0.508
2014-05-05 03:48:00,2952E-2,5C000400,-0724,1033,10160,025.5,045.3,0.000,750.7,01.17,0.508
2014-05-05 03:49:00,2955E-2,5C000400,-0724,1034,10334,025.5,045.2,0.000,750.6,01.17,0.508
2014-05-05 03:50:00,2930E-2,5C000400,-0724,1031,10344,025.5,045.2,0.000,750.6,01.17,0.508
2014-05-05 03:51:00,2929E-2,5C000400,-0724,1033,10241,025.5,045.2,0.000,750.6,01.17,0.508
2014-05-05 03:52:00,2966E-2,5C000400,-0724,1032,10078,025.5,045.2,0.000,750.6,01.17,0.508
2014-05-05 03:53:00,2915E-2,5C000400,-0724,1033,10225,025.5,045.2,0.000,750.6,01.17,0.508
2014-05-05 03:54:00,2907E-2,5C000400,-0724,1033,10145,025.5,045.2,0.000,750.6,01.17,0.508
2014-05-05 03:55:00,2922E-2,5C000400,-0724,1032,10259,025.5,045.2,0.000,750.6,01.17,0.508
2014-05-05 03:56:00,2898E-2,5C000400,-0724,1030,10180,025.5,045.2,0.000,750.6,01.17,0.508
2014-05-05 03:57:00,2937E-2,5C000400,-0724,1031,10140,025.6,045.2,0.000,750.6,01.17,0.508
2014-05-05 03:58:00,2917E-2,5C000400,-0724,1030,10169,025.6,045.2,0.000,750.6,01.17,0.508
2014-05-05 03:59:00,2909E-2,5C000400,-0724,1032,10320,025.5,045.2,0.000,750.5,01.17,0.508
2014-05-05 04:00:00,2873E-2,5C000400,-0724,1034,10144,025.5,045.2,0.000,750.6,01.17,0.508
2014-05-05 04:01:00,2914E-2,5C000400,-0724,1036,10036,025.5,045.2,0.000,750.5,01.17,0.508
2014-05-05 04:02:00,2912E-2,5C000400,-0724,1041,10132,025.5,045.2,0.000,750.5,01.17,0.508
2014-05-05 04:03:00,2875E-2,5C000400,-0724,1042,10108,025.6,045.2,0.000,750.6,01.17,0.508
2014-05-05 04:04:00,2919E-2,5C000410,-0724,1041,10069,025.6,045.2,0.000,750.4,01.17,0.508
2014-05-05 04:05:00,2903E-2,5C000400,-0724,1042,10188,025.6,045.2,0.000,750.4,01.17,0.508
2014-05-05 04:06:00,2850E-2,5C000400,-0724,1042,10146,025.6,045.2,0.000,750.5,01.17,0.508
2014-05-05 04:07:00,2893E-2,5C000400,-0724,1042,10121,025.6,045.2,0.000,750.5,01.17,0.508
2014-05-05 04:08:00,2878E-2,5C000400,-0724,1040,10054,025.5,045.2,0.000,750.5,01.17,0.508
2014-05-05 04:09:00,2887E-2,5C000400,-0724,1040,10221,025.6,045.3,0.000,750.5,01.17,0.508
2014-05-05 04:10:00,2889E-2,5C000400,-0724,1039,10144,025.6,045.2,0.000,750.4,01.17,0.508
2014-05-05 04:11:00,2925E-2,5C000400,-0724,1039,10161,025.6,045.2,0.000,750.4,01.17,0.508
2014-05-05 04:12:00,2923E-2,5C000400,-0724,1037,10134,025.6,045.2,0.000,750.4,01.17,0.508
2014-05-05 04:13:00,2911E-2,5C000400,-0724,1037,10264,025.5,045.2,0.000,750.5,01.17,0.508
2014-05-05 04:14:00,2901E-2,5C000400,-0724,1034,10276,025.6,045.2,0.000,750.4,01.17,0.508
2014-05-05 04:15:00,2909E-2,5C000400,-0724,1034,10164,025.5,045.2,0.000,750.4,01.17,0.508
2014-05-05 04:16:00,2934E-2,5C000400,-0724,1033,10195,025.6,045.2,0.000,750.4,01.17,0.508
2014-05-05 04:17:00,2921E-2,5C000400,-0724,1032,10064,025.6,045.2,0.000,750.4,01.17,0.508
2014-05-05 04:18:00,2912E-2,5C000400,-0724,1032,10258,025.6,045.2,0.000,750.4,01.17,0.508
2014-05-05 04:19:00,2899E-2,5C000400,-0724,1033,10257,025.6,045.2,0.000,750.4,01.17,0.508
2014-05-05 04:20:00,2867E-2,5C000400,-0724,1031,10257,025.5,045.2,0.000,750.3,01.17,0.508